[Date Prev][Date Next][Thread Prev][Thread Next] - [Date Index][Thread Index][Author Index]
2 Line ISS Keps 3-22
- Subject: [sarex] 2 Line ISS Keps 3-22
- From: "Dave Larsen PhD" <doc@xxxxxxxxxxx>
- Date: Fri, 22 Mar 2002 01:03:32 -0800
ISS
1 25544U 98067A 02081.18022053 .00061965 00000-0 80064-3 0 2162
2 25544 51.6365 130.0972 0003714 305.1552 156.2649 15.58346056190462
----
Via the sarex mailing list at AMSAT.ORG courtesy of AMSAT-NA.
To unsubscribe, send "unsubscribe sarex" to Majordomo@amsat.org
AMSAT Home